| time (UTC) | temp C | wind direction | speed KPH | gust KPH | rain 1hr cm | rain 24hr cm | rain mn cm | humidity % | barometer mb |
| 20260906105937 | 18 | 39 | 3.2 | 6.4 | 0.00 | 0.00 | 0.00 | 97 | 1018.8 |
| 20260906105434 | 18 | 39 | 0.0 | 3.2 | 0.00 | 0.00 | 0.00 | 97 | 1018.8 |
| 20260906104930 | 19 | 39 | 0.0 | 0.0 | 0.00 | 0.00 | 0.00 | 97 | 1018.8 |
| 20260906104428 | 19 | 39 | 3.2 | 6.4 | 0.00 | 0.00 | 0.00 | 97 | 1018.8 |
| 20260906103927 | 19 | 39 | 1.6 | 4.8 | 0.00 | 0.00 | 0.00 | 97 | 1018.5 |
| 20260906103425 | 19 | 39 | 1.6 | 4.8 | 0.00 | 0.00 | 0.00 | 97 | 1018.5 |
| 20260906102921 | 19 | 39 | 0.0 | 0.0 | 0.00 | 0.00 | 0.00 | 97 | 1018.5 |
| 20260906102420 | 19 | 39 | 1.6 | 3.2 | 0.00 | 0.00 | 0.00 | 97 | 1018.5 |
| 20260906101915 | 19 | 39 | 3.2 | 4.8 | 0.00 | 0.00 | 0.00 | 97 | 1018.5 |
| 20260906101411 | 19 | 39 | 0.0 | 3.2 | 0.00 | 0.00 | 0.00 | 97 | 1018.1 |
| 20260906100906 | 19 | 39 | 1.6 | 3.2 | 0.00 | 0.00 | 0.00 | 97 | 1018.1 |
| 20260906100405 | 19 | 39 | 0.0 | 3.2 | 0.00 | 0.00 | 0.00 | 97 | 1018.1 |
| 20260906095900 | 20 | 39 | 3.2 | 3.2 | 0.00 | 0.00 | 0.00 | 97 | 1018.1 |
| 20260906095356 | 20 | 39 | 1.6 | 3.2 | 0.00 | 0.00 | 0.00 | 97 | 1018.1 |
| 20260906094855 | 20 | 39 | 4.8 | 6.4 | 0.00 | 0.00 | 0.00 | 97 | 1018.1 |
| 20260906094350 | 20 | 39 | 4.8 | 8.0 | 0.00 | 0.00 | 0.00 | 97 | 1018.1 |
| 20260906093847 | 20 | 39 | 4.8 | 6.4 | 0.00 | 0.00 | 0.00 | 96 | 1018.1 |
| 20260906093343 | 20 | 39 | 4.8 | 6.4 | 0.00 | 0.00 | 0.00 | 96 | 1018.1 |
| 20260906092837 | 20 | 39 | 4.8 | 6.4 | 0.00 | 0.00 | 0.00 | 96 | 1018.1 |
| 20260906092337 | 20 | 39 | 4.8 | 6.4 | 0.00 | 0.00 | 0.00 | 96 | 1018.1 |
| 20260906091833 | 20 | 39 | 6.4 | 8.0 | 0.00 | 0.00 | 0.00 | 96 | 1018.1 |
| 20260906091329 | 20 | 39 | 4.8 | 4.8 | 0.00 | 0.00 | 0.00 | 96 | 1018.1 |
| 20260906090825 | 20 | 39 | 4.8 | 6.4 | 0.00 | 0.00 | 0.00 | 96 | 1018.1 |
| 20260906090324 | 20 | 39 | 4.8 | 8.0 | 0.00 | 0.00 | 0.00 | 96 | 1018.1 |
| 20260906085824 | 20 | 39 | 4.8 | 8.0 | 0.00 | 0.00 | 0.00 | 96 | 1018.1 |
| 20260906085323 | 20 | 53 | 3.2 | 6.4 | 0.00 | 0.00 | 0.00 | 97 | 1018.1 |
| 20260906084819 | 20 | 53 | 3.2 | 6.4 | 0.00 | 0.00 | 0.00 | 97 | 1018.1 |
| 20260906084318 | 20 | 53 | 6.4 | 8.0 | 0.00 | 0.00 | 0.00 | 97 | 1018.1 |
| 20260906083813 | 20 | 51 | 4.8 | 8.0 | 0.00 | 0.00 | 0.00 | 97 | 1018.1 |
| 20260906083309 | 20 | 55 | 8.0 | 9.7 | 0.00 | 0.00 | 0.00 | 97 | 1018.1 |
| 20260906082809 | 20 | 59 | 3.2 | 4.8 | 0.00 | 0.00 | 0.00 | 97 | 1018.1 |
| 20260906082306 | 20 | 44 | 4.8 | 8.0 | 0.00 | 0.00 | 0.00 | 97 | 1017.8 |
| 20260906081759 | 20 | 32 | 4.8 | 9.7 | 0.00 | 0.00 | 0.00 | 97 | 1017.8 |
| 20260906081255 | 20 | 32 | 4.8 | 6.4 | 0.00 | 0.00 | 0.00 | 97 | 1018.1 |
| 20260906080751 | 20 | 32 | 4.8 | 8.0 | 0.00 | 0.00 | 0.00 | 97 | 1018.1 |
| 20260906080248 | 20 | 32 | 4.8 | 6.4 | 0.00 | 0.00 | 0.00 | 97 | 1018.1 |
| 20260906075747 | 20 | 32 | 3.2 | 6.4 | 0.00 | 0.00 | 0.00 | 97 | 1018.1 |
| 20260906075247 | 20 | 32 | 4.8 | 8.0 | 0.00 | 0.00 | 0.00 | 97 | 1018.1 |
| 20260906074743 | 20 | 32 | 6.4 | 6.4 | 0.00 | 0.00 | 0.00 | 97 | 1018.1 |
| 20260906074242 | 21 | 32 | 4.8 | 8.0 | 0.00 | 0.00 | 0.00 | 97 | 1018.1 |
| 20260906073741 | 21 | 32 | 4.8 | 6.4 | 0.00 | 0.00 | 0.00 | 97 | 1017.8 |
| 20260906073236 | 21 | 32 | 6.4 | 8.0 | 0.00 | 0.00 | 0.00 | 97 | 1017.8 |
| 20260906072732 | 21 | 32 | 8.0 | 9.7 | 0.00 | 0.00 | 0.00 | 97 | 1018.1 |
| 20260906072228 | 21 | 32 | 4.8 | 6.4 | 0.00 | 0.00 | 0.00 | 97 | 1017.8 |
| 20260906071724 | 21 | 43 | 6.4 | 8.0 | 0.00 | 0.00 | 0.00 | 97 | 1017.8 |
| 20260906071223 | 21 | 21 | 6.4 | 8.0 | 0.00 | 0.00 | 0.00 | 97 | 1017.8 |
| 20260906070720 | 21 | 21 | 4.8 | 8.0 | 0.00 | 0.00 | 0.00 | 97 | 1017.8 |
| 20260906070216 | 21 | 21 | 4.8 | 6.4 | 0.00 | 0.00 | 0.00 | 97 | 1017.8 |
| 20260906065715 | 21 | 21 | 8.0 | 9.7 | 0.00 | 0.00 | 0.00 | 97 | 1018.1 |
| 20260906065210 | 21 | 39 | 6.4 | 8.0 | 0.00 | 0.00 | 0.00 | 97 | 1017.8 |
| 20260906064706 | 21 | 39 | 4.8 | 6.4 | 0.00 | 0.00 | 0.00 | 96 | 1018.1 |
| 20260906064201 | 21 | 39 | 4.8 | 8.0 | 0.00 | 0.00 | 0.00 | 96 | 1018.1 |
| 20260906063656 | 21 | 39 | 4.8 | 6.4 | 0.00 | 0.00 | 0.00 | 96 | 1018.1 |
| 20260906063152 | 21 | 39 | 4.8 | 6.4 | 0.00 | 0.00 | 0.00 | 96 | 1018.1 |
| 20260906062648 | 21 | 39 | 6.4 | 9.7 | 0.00 | 0.00 | 0.00 | 96 | 1018.1 |
| 20260906062146 | 21 | 39 | 6.4 | 8.0 | 0.00 | 0.00 | 0.00 | 96 | 1018.1 |
| 20260906061643 | 21 | 39 | 6.4 | 9.7 | 0.00 | 0.00 | 0.00 | 96 | 1018.1 |
| 20260906061142 | 21 | 39 | 6.4 | 6.4 | 0.00 | 0.00 | 0.00 | 95 | 1018.1 |
| 20260906060639 | 21 | 39 | 4.8 | 4.8 | 0.00 | 0.00 | 0.00 | 95 | 1018.1 |
| 20260906060136 | 21 | 39 | 3.2 | 6.4 | 0.00 | 0.00 | 0.00 | 95 | 1018.1 |
| 20260906055631 | 21 | 39 | 1.6 | 3.2 | 0.00 | 0.00 | 0.00 | 95 | 1017.8 |
| 20260906055126 | 21 | 39 | 3.2 | 3.2 | 0.00 | 0.00 | 0.00 | 95 | 1017.8 |
| 20260906054621 | 21 | 39 | 3.2 | 3.2 | 0.00 | 0.00 | 0.00 | 94 | 1017.8 |
| 20260906054117 | 21 | 39 | 1.6 | 3.2 | 0.00 | 0.00 | 0.00 | 94 | 1017.8 |
| 20260906053613 | 21 | 39 | 4.8 | 6.4 | 0.00 | 0.00 | 0.00 | 93 | 1017.5 |
| 20260906053108 | 21 | 39 | 3.2 | 6.4 | 0.00 | 0.00 | 0.00 | 92 | 1017.5 |
| 20260906052604 | 22 | 39 | 3.2 | 4.8 | 0.00 | 0.00 | 0.00 | 92 | 1017.5 |
| 20260906052100 | 22 | 39 | 3.2 | 6.4 | 0.00 | 0.00 | 0.00 | 92 | 1017.5 |
| 20260906051556 | 22 | 40 | 4.8 | 8.0 | 0.00 | 0.00 | 0.00 | 92 | 1017.5 |
| 20260906051051 | 22 | 49 | 4.8 | 4.8 | 0.00 | 0.00 | 0.00 | 92 | 1017.5 |
| 20260906050546 | 22 | 49 | 6.4 | 9.7 | 0.00 | 0.00 | 0.00 | 92 | 1017.5 |
| 20260906050041 | 22 | 356 | 3.2 | 9.7 | 0.00 | 0.00 | 0.00 | 92 | 1017.0 |
| 20260906045539 | 22 | 48 | 6.4 | 9.7 | 0.00 | 0.00 | 0.00 | 91 | 1017.5 |
| 20260906045035 | 22 | 23 | 6.4 | 12.9 | 0.00 | 0.00 | 0.00 | 91 | 1017.5 |
| 20260906044530 | 22 | 25 | 8.0 | 11.3 | 0.00 | 0.00 | 0.00 | 91 | 1017.5 |
| 20260906044026 | 22 | 62 | 4.8 | 6.4 | 0.00 | 0.00 | 0.00 | 91 | 1017.0 |
| 20260906043521 | 22 | 24 | 11.3 | 14.5 | 0.00 | 0.00 | 0.00 | 91 | 1017.5 |
| 20260906043018 | 22 | 17 | 8.0 | 9.7 | 0.00 | 0.00 | 0.00 | 91 | 1017.5 |
| 20260906042517 | 22 | 17 | 8.0 | 9.7 | 0.00 | 0.00 | 0.00 | 91 | 1017.0 |
| 20260906042017 | 22 | 17 | 8.0 | 11.3 | 0.00 | 0.00 | 0.00 | 91 | 1017.0 |
| 20260906041513 | 22 | 28 | 8.0 | 9.7 | 0.00 | 0.00 | 0.00 | 91 | 1017.0 |
| 20260906041013 | 22 | 29 | 6.4 | 9.7 | 0.00 | 0.00 | 0.00 | 91 | 1017.0 |
| 20260906040508 | 22 | 27 | 9.7 | 11.3 | 0.00 | 0.00 | 0.00 | 91 | 1017.0 |
| 20260906040003 | 22 | 20 | 6.4 | 9.7 | 0.00 | 0.00 | 0.00 | 91 | 1017.0 |
| 20260906035458 | 22 | 15 | 9.7 | 11.3 | 0.00 | 0.00 | 0.00 | 91 | 1017.0 |
| 20260906034954 | 22 | 51 | 6.4 | 8.0 | 0.00 | 0.00 | 0.00 | 91 | 1017.0 |
| 20260906034454 | 22 | 19 | 11.3 | 16.1 | 0.00 | 0.00 | 0.00 | 91 | 1017.0 |
| 20260906033949 | 22 | 17 | 6.4 | 9.7 | 0.00 | 0.00 | 0.00 | 91 | 1017.0 |
| 20260906033444 | 21 | 38 | 6.4 | 9.7 | 0.00 | 0.00 | 0.00 | 91 | 1017.0 |
| 20260906032940 | 21 | 22 | 8.0 | 9.7 | 0.00 | 0.00 | 0.00 | 91 | 1017.0 |
| 20260906032437 | 21 | 19 | 8.0 | 11.3 | 0.00 | 0.00 | 0.00 | 92 | 1017.0 |
| 20260906031936 | 21 | 19 | 9.7 | 11.3 | 0.00 | 0.00 | 0.00 | 92 | 1017.0 |
| 20260906031432 | 21 | 31 | 9.7 | 14.5 | 0.00 | 0.00 | 0.00 | 92 | 1017.0 |
| 20260906030927 | 21 | 19 | 9.7 | 12.9 | 0.00 | 0.00 | 0.00 | 92 | 1017.0 |
| 20260906030422 | 21 | 30 | 8.0 | 9.7 | 0.00 | 0.00 | 0.00 | 91 | 1017.0 |
| 20260906025922 | 22 | 31 | 9.7 | 14.5 | 0.00 | 0.00 | 0.00 | 91 | 1017.0 |
| 20260906025416 | 22 | 21 | 11.3 | 14.5 | 0.00 | 0.00 | 0.00 | 91 | 1016.7 |
| 20260906024915 | 22 | 30 | 9.7 | 14.5 | 0.00 | 0.00 | 0.00 | 91 | 1016.7 |
| 20260906024414 | 22 | 14 | 9.7 | 16.1 | 0.00 | 0.00 | 0.00 | 91 | 1017.0 |
| 20260906023910 | 21 | 19 | 9.7 | 12.9 | 0.00 | 0.00 | 0.00 | 92 | 1017.0 |
| 20260906023406 | 21 | 22 | 9.7 | 16.1 | 0.00 | 0.00 | 0.00 | 93 | 1016.7 |
| 20260906022906 | 21 | 0 | 8.0 | 9.7 | 0.00 | 0.00 | 0.00 | 93 | 1017.0 |
| 20260906022401 | 21 | 14 | 8.0 | 9.7 | 0.00 | 0.00 | 0.00 | 93 | 1017.0 |
| 20260906021857 | 21 | 14 | 6.4 | 8.0 | 0.00 | 0.00 | 0.00 | 93 | 1016.7 |
| 20260906021356 | 21 | 23 | 6.4 | 9.7 | 0.00 | 0.00 | 0.00 | 93 | 1016.7 |
| 20260906020851 | 21 | 15 | 6.4 | 8.0 | 0.00 | 0.00 | 0.00 | 93 | 1016.7 |
| 20260906020350 | 21 | 15 | 8.0 | 11.3 | 0.00 | 0.00 | 0.00 | 93 | 1016.7 |
| 20260906015845 | 21 | 15 | 8.0 | 9.7 | 0.00 | 0.00 | 0.00 | 92 | 1016.7 |
| 20260906015345 | 21 | 15 | 8.0 | 11.3 | 0.00 | 0.00 | 0.00 | 92 | 1016.7 |
| 20260906014845 | 22 | 15 | 6.4 | 8.0 | 0.00 | 0.00 | 0.00 | 92 | 1016.7 |
| 20260906014344 | 22 | 7 | 8.0 | 11.3 | 0.00 | 0.00 | 0.00 | 92 | 1016.7 |
| 20260906013841 | 22 | 3 | 6.4 | 8.0 | 0.00 | 0.00 | 0.00 | 91 | 1016.7 |
| 20260906013336 | 22 | 2 | 8.0 | 11.3 | 0.00 | 0.00 | 0.00 | 91 | 1016.4 |
| 20260906012831 | 22 | 0 | 8.0 | 11.3 | 0.00 | 0.00 | 0.00 | 91 | 1016.4 |
| 20260906012326 | 22 | 10 | 9.7 | 14.5 | 0.00 | 0.00 | 0.00 | 90 | 1016.4 |
| 20260906011821 | 22 | 21 | 9.7 | 14.5 | 0.00 | 0.00 | 0.00 | 90 | 1016.4 |
| 20260906011315 | 22 | 356 | 8.0 | 12.9 | 0.00 | 0.00 | 0.00 | 90 | 1016.4 |
| 20260906010811 | 22 | 10 | 9.7 | 12.9 | 0.00 | 0.00 | 0.00 | 90 | 1016.4 |
| 20260906010307 | 22 | 18 | 8.0 | 9.7 | 0.00 | 0.00 | 0.00 | 89 | 1016.4 |
| 20260906005802 | 22 | 8 | 8.0 | 11.3 | 0.00 | 0.00 | 0.00 | 89 | 1016.0 |
| 20260906005301 | 22 | 40 | 11.3 | 16.1 | 0.00 | 0.00 | 0.00 | 89 | 1016.0 |
| 20260906004800 | 23 | 38 | 8.0 | 14.5 | 0.00 | 0.00 | 0.00 | 88 | 1016.0 |
| 20260906004255 | 23 | 17 | 9.7 | 12.9 | 0.00 | 0.00 | 0.00 | 88 | 1016.0 |
| 20260906003755 | 23 | 28 | 8.0 | 12.9 | 0.00 | 0.00 | 0.00 | 88 | 1016.0 |
| 20260906003251 | 23 | 19 | 11.3 | 14.5 | 0.00 | 0.00 | 0.00 | 87 | 1016.0 |
| 20260906002746 | 23 | 5 | 9.7 | 12.9 | 0.00 | 0.00 | 0.00 | 87 | 1016.0 |
| 20260906002246 | 23 | 15 | 9.7 | 11.3 | 0.00 | 0.00 | 0.00 | 86 | 1015.7 |
| 20260906001742 | 24 | 21 | 12.9 | 17.7 | 0.00 | 0.00 | 0.00 | 86 | 1015.7 |
| 20260906001237 | 24 | 26 | 12.9 | 16.1 | 0.00 | 0.00 | 0.00 | 85 | 1015.7 |
| 20260906000732 | 25 | 22 | 16.1 | 20.9 | 0.00 | 0.00 | 0.00 | 85 | 1016.0 |
| 20260906000233 | 25 | 32 | 9.7 | 16.1 | 0.00 | 0.00 | 0.00 | 85 | 1015.7 |
| 20260905235727 | 25 | 13 | 14.5 | 19.3 | 0.00 | 0.00 | 0.00 | 84 | 1015.7 |
| 20260905235221 | 25 | 15 | 12.9 | 16.1 | 0.00 | 0.00 | 0.00 | 84 | 1015.7 |
| 20260905234717 | 25 | 34 | 12.9 | 19.3 | 0.00 | 0.00 | 0.00 | 84 | 1015.7 |
| 20260905234212 | 26 | 24 | 12.9 | 17.7 | 0.00 | 0.00 | 0.00 | 83 | 1015.3 |
| 20260905233707 | 26 | 16 | 12.9 | 16.1 | 0.00 | 0.00 | 0.00 | 82 | 1015.3 |
| 20260905233207 | 26 | 34 | 14.5 | 19.3 | 0.00 | 0.00 | 0.00 | 81 | 1015.3 |
| 20260905232702 | 26 | 31 | 12.9 | 17.7 | 0.00 | 0.00 | 0.00 | 81 | 1015.3 |
| 20260905232157 | 27 | 18 | 11.3 | 16.1 | 0.00 | 0.00 | 0.00 | 80 | 1015.3 |
| 20260905231653 | 27 | 20 | 16.1 | 22.5 | 0.00 | 0.00 | 0.00 | 79 | 1015.0 |
| 20260905231148 | 27 | 14 | 16.1 | 19.3 | 0.00 | 0.00 | 0.00 | 79 | 1015.0 |
| 20260905230644 | 27 | 23 | 16.1 | 20.9 | 0.00 | 0.00 | 0.00 | 78 | 1015.0 |
| 20260905230142 | 27 | 17 | 14.5 | 20.9 | 0.00 | 0.00 | 0.00 | 77 | 1014.7 |
| 20260905225642 | 28 | 37 | 17.7 | 27.4 | 0.00 | 0.00 | 0.00 | 77 | 1014.7 |
| 20260905225142 | 28 | 24 | 11.3 | 17.7 | 0.00 | 0.00 | 0.00 | 76 | 1014.7 |
| 20260905224642 | 28 | 26 | 17.7 | 27.4 | 0.00 | 0.00 | 0.00 | 75 | 1014.7 |
| 20260905224141 | 28 | 24 | 14.5 | 20.9 | 0.00 | 0.00 | 0.00 | 75 | 1014.7 |
| 20260905223638 | 28 | 26 | 12.9 | 19.3 | 0.00 | 0.00 | 0.00 | 75 | 1014.7 |
| 20260905223135 | 29 | 26 | 14.5 | 22.5 | 0.00 | 0.00 | 0.00 | 74 | 1014.7 |
| 20260905222630 | 29 | 23 | 17.7 | 24.1 | 0.00 | 0.00 | 0.00 | 73 | 1014.7 |
| 20260905222125 | 29 | 15 | 16.1 | 24.1 | 0.00 | 0.00 | 0.00 | 73 | 1014.7 |
| 20260905221621 | 29 | 11 | 17.7 | 22.5 | 0.00 | 0.00 | 0.00 | 73 | 1014.7 |
| 20260905221117 | 30 | 10 | 14.5 | 20.9 | 0.00 | 0.00 | 0.00 | 74 | 1014.7 |
| 20260905220613 | 30 | 10 | 17.7 | 20.9 | 0.00 | 0.00 | 0.00 | 72 | 1014.3 |
| 20260905220109 | 30 | 17 | 16.1 | 20.9 | 0.00 | 0.00 | 0.00 | 72 | 1014.3 |
| 20260905215608 | 30 | 11 | 16.1 | 22.5 | 0.00 | 0.00 | 0.00 | 72 | 1014.0 |
| 20260905215104 | 30 | 3 | 12.9 | 20.9 | 0.00 | 0.00 | 0.00 | 72 | 1014.3 |
| 20260905214600 | 30 | 13 | 11.3 | 16.1 | 0.00 | 0.00 | 0.00 | 73 | 1014.0 |
| 20260905214100 | 30 | 358 | 11.3 | 17.7 | 0.00 | 0.00 | 0.00 | 73 | 1014.3 |
| 20260905213601 | 30 | 17 | 16.1 | 17.7 | 0.00 | 0.00 | 0.00 | 72 | 1014.3 |
| 20260905213056 | 31 | 25 | 17.7 | 24.1 | 0.00 | 0.00 | 0.00 | 72 | 1014.0 |
| 20260905212556 | 31 | 4 | 17.7 | 24.1 | 0.00 | 0.00 | 0.00 | 72 | 1014.0 |
| 20260905212056 | 31 | 10 | 17.7 | 22.5 | 0.00 | 0.00 | 0.00 | 72 | 1014.0 |
| 20260905211551 | 31 | 15 | 12.9 | 19.3 | 0.00 | 0.00 | 0.00 | 72 | 1014.0 |
| 20260905211047 | 31 | 22 | 14.5 | 17.7 | 0.00 | 0.00 | 0.00 | 71 | 1014.0 |
| 20260905210543 | 31 | 2 | 11.3 | 16.1 | 0.00 | 0.00 | 0.00 | 73 | 1014.0 |
| 20260905210037 | 31 | 3 | 14.5 | 20.9 | 0.00 | 0.00 | 0.00 | 72 | 1013.6 |
| 20260905205537 | 31 | 15 | 16.1 | 27.4 | 0.00 | 0.00 | 0.00 | 72 | 1013.6 |
| 20260905205036 | 31 | 358 | 14.5 | 20.9 | 0.00 | 0.00 | 0.00 | 72 | 1013.6 |
| 20260905204531 | 31 | 347 | 16.1 | 20.9 | 0.00 | 0.00 | 0.00 | 72 | 1013.6 |
| 20260905204026 | 31 | 8 | 14.5 | 16.1 | 0.00 | 0.00 | 0.00 | 72 | 1013.6 |
| 20260905203526 | 32 | 36 | 16.1 | 22.5 | 0.00 | 0.00 | 0.00 | 72 | 1013.6 |
| 20260905203021 | 32 | 17 | 17.7 | 24.1 | 0.00 | 0.00 | 0.00 | 72 | 1013.6 |
| 20260905202517 | 32 | 4 | 16.1 | 24.1 | 0.00 | 0.00 | 0.00 | 72 | 1013.6 |
| 20260905202012 | 32 | 347 | 11.3 | 16.1 | 0.00 | 0.00 | 0.00 | 73 | 1014.0 |
| 20260905201508 | 32 | 7 | 12.9 | 17.7 | 0.00 | 0.00 | 0.00 | 73 | 1014.0 |
| 20260905201007 | 32 | 329 | 12.9 | 17.7 | 0.00 | 0.00 | 0.00 | 73 | 1014.0 |
| 20260905200503 | 31 | 352 | 12.9 | 17.7 | 0.00 | 0.00 | 0.00 | 73 | 1014.0 |
| 20260905200001 | 32 | 5 | 14.5 | 22.5 | 0.00 | 0.00 | 0.00 | 71 | 1014.0 |
| 20260905195456 | 33 | 346 | 11.3 | 19.3 | 0.00 | 0.00 | 0.00 | 71 | 1013.6 |
| 20260905194952 | 32 | 347 | 9.7 | 16.1 | 0.00 | 0.00 | 0.00 | 70 | 1014.0 |
| 20260905194451 | 32 | 333 | 14.5 | 20.9 | 0.00 | 0.00 | 0.00 | 70 | 1013.6 |
| 20260905193946 | 33 | 330 | 11.3 | 14.5 | 0.00 | 0.00 | 0.00 | 72 | 1014.0 |
| 20260905193446 | 33 | 345 | 8.0 | 9.7 | 0.00 | 0.00 | 0.00 | 71 | 1013.6 |
| 20260905192941 | 33 | 4 | 12.9 | 16.1 | 0.00 | 0.00 | 0.00 | 71 | 1014.0 |
| 20260905192436 | 33 | 327 | 9.7 | 14.5 | 0.00 | 0.00 | 0.00 | 70 | 1014.0 |
| 20260905191932 | 33 | 333 | 9.7 | 16.1 | 0.00 | 0.00 | 0.00 | 70 | 1014.0 |
| 20260905191431 | 33 | 334 | 4.8 | 11.3 | 0.00 | 0.00 | 0.00 | 71 | 1014.0 |
| 20260905190931 | 32 | 6 | 9.7 | 11.3 | 0.00 | 0.00 | 0.00 | 73 | 1014.0 |
| 20260905190429 | 32 | 342 | 8.0 | 11.3 | 0.00 | 0.00 | 0.00 | 73 | 1014.0 |
| 20260905185928 | 31 | 356 | 6.4 | 8.0 | 0.00 | 0.00 | 0.00 | 75 | 1014.3 |
| 20260905185423 | 32 | 358 | 9.7 | 12.9 | 0.00 | 0.00 | 0.00 | 71 | 1014.7 |
| 20260905184921 | 33 | 336 | 9.7 | 12.9 | 0.00 | 0.00 | 0.00 | 69 | 1014.3 |
| 20260905184416 | 33 | 320 | 8.0 | 14.5 | 0.00 | 0.00 | 0.00 | 70 | 1014.3 |
| 20260905183915 | 32 | 308 | 3.2 | 6.4 | 0.00 | 0.00 | 0.00 | 73 | 1014.3 |
| 20260905183410 | 32 | 352 | 6.4 | 8.0 | 0.00 | 0.00 | 0.00 | 74 | 1014.3 |
| 20260905182905 | 32 | 7 | 9.7 | 9.7 | 0.00 | 0.00 | 0.00 | 74 | 1014.7 |
| 20260905182404 | 32 | 1 | 9.7 | 14.5 | 0.00 | 0.00 | 0.00 | 73 | 1014.3 |
| 20260905181901 | 32 | 24 | 6.4 | 9.7 | 0.00 | 0.00 | 0.00 | 74 | 1014.7 |
| 20260905181400 | 32 | 4 | 8.0 | 12.9 | 0.00 | 0.00 | 0.00 | 74 | 1014.7 |
| 20260905180859 | 32 | 334 | 8.0 | 9.7 | 0.00 | 0.00 | 0.00 | 72 | 1014.7 |
| 20260905180354 | 32 | 349 | 6.4 | 8.0 | 0.00 | 0.00 | 0.00 | 73 | 1014.7 |
| 20260905175849 | 32 | 336 | 4.8 | 8.0 | 0.00 | 0.00 | 0.00 | 73 | 1014.7 |
| 20260905175343 | 32 | 13 | 6.4 | 8.0 | 0.00 | 0.00 | 0.00 | 71 | 1014.7 |
| 20260905174838 | 32 | 10 | 6.4 | 8.0 | 0.00 | 0.00 | 0.00 | 71 | 1014.7 |
| 20260905174334 | 32 | 11 | 1.6 | 4.8 | 0.00 | 0.00 | 0.00 | 73 | 1014.7 |
| 20260905173830 | 32 | 356 | 6.4 | 6.4 | 0.00 | 0.00 | 0.00 | 72 | 1014.7 |
| 20260905173326 | 32 | 356 | 6.4 | 9.7 | 0.00 | 0.00 | 0.00 | 71 | 1014.7 |
| 20260905172826 | 32 | 356 | 6.4 | 11.3 | 0.00 | 0.00 | 0.00 | 71 | 1014.7 |
| 20260905172324 | 32 | 356 | 8.0 | 11.3 | 0.00 | 0.00 | 0.00 | 72 | 1014.7 |
| 20260905171820 | 32 | 352 | 8.0 | 9.7 | 0.00 | 0.00 | 0.00 | 71 | 1014.7 |
| 20260905171317 | 32 | 310 | 0.0 | 0.0 | 0.00 | 0.00 | 0.00 | 71 | 1015.0 |
| 20260905170813 | 32 | 310 | 8.0 | 9.7 | 0.00 | 0.00 | 0.00 | 72 | 1015.0 |
| 20260905170308 | 32 | 334 | 4.8 | 6.4 | 0.00 | 0.00 | 0.00 | 71 | 1015.0 |
| 20260905165807 | 32 | 343 | 6.4 | 8.0 | 0.00 | 0.00 | 0.00 | 70 | 1015.0 |
| 20260905165306 | 32 | 306 | 1.6 | 3.2 | 0.00 | 0.00 | 0.00 | 72 | 1015.0 |
| 20260905164803 | 32 | 306 | 3.2 | 8.0 | 0.00 | 0.00 | 0.00 | 72 | 1015.0 |
| 20260905164258 | 32 | 306 | 3.2 | 9.7 | 0.00 | 0.00 | 0.00 | 72 | 1015.0 |
| 20260905163753 | 32 | 306 | 6.4 | 12.9 | 0.00 | 0.00 | 0.00 | 73 | 1015.0 |
| 20260905163249 | 32 | 319 | 8.0 | 11.3 | 0.00 | 0.00 | 0.00 | 73 | 1015.0 |
| 20260905162745 | 31 | 342 | 6.4 | 9.7 | 0.00 | 0.00 | 0.00 | 75 | 1015.0 |
| 20260905162245 | 31 | 342 | 6.4 | 8.0 | 0.00 | 0.00 | 0.00 | 74 | 1015.3 |
| 20260905161739 | 31 | 340 | 6.4 | 11.3 | 0.00 | 0.00 | 0.00 | 74 | 1015.3 |
| 20260905161238 | 31 | 342 | 6.4 | 11.3 | 0.00 | 0.00 | 0.00 | 74 | 1015.3 |
| 20260905160737 | 32 | 324 | 6.4 | 9.7 | 0.00 | 0.00 | 0.00 | 72 | 1015.3 |
| 20260905160237 | 32 | 345 | 8.0 | 11.3 | 0.00 | 0.00 | 0.00 | 71 | 1015.0 |
| 20260905155732 | 32 | 330 | 3.2 | 11.3 | 0.00 | 0.00 | 0.00 | 73 | 1015.0 |
| 20260905155231 | 31 | 332 | 4.8 | 8.0 | 0.00 | 0.00 | 0.00 | 72 | 1015.0 |
| 20260905154725 | 31 | 330 | 4.8 | 8.0 | 0.00 | 0.00 | 0.00 | 72 | 1015.0 |
| 20260905154221 | 31 | 333 | 1.6 | 4.8 | 0.00 | 0.00 | 0.00 | 74 | 1015.0 |
| 20260905153716 | 31 | 334 | 4.8 | 9.7 | 0.00 | 0.00 | 0.00 | 74 | 1015.0 |
| 20260905153212 | 31 | 342 | 8.0 | 12.9 | 0.00 | 0.00 | 0.00 | 76 | 1015.0 |
| 20260905152707 | 30 | 0 | 9.7 | 14.5 | 0.00 | 0.00 | 0.00 | 76 | 1015.0 |
| 20260905152201 | 30 | 1 | 8.0 | 11.3 | 0.00 | 0.00 | 0.00 | 77 | 1015.0 |
| 20260905151655 | 30 | 358 | 9.7 | 16.1 | 0.00 | 0.00 | 0.00 | 76 | 1015.0 |
| 20260905151151 | 30 | 333 | 6.4 | 9.7 | 0.00 | 0.00 | 0.00 | 77 | 1015.0 |
| 20260905150646 | 30 | 333 | 6.4 | 8.0 | 0.00 | 0.00 | 0.00 | 77 | 1015.0 |
| 20260905150145 | 30 | 333 | 6.4 | 9.7 | 0.00 | 0.00 | 0.00 | 76 | 1015.0 |
| 20260905145643 | 30 | 330 | 6.4 | 8.0 | 0.00 | 0.00 | 0.00 | 79 | 1015.0 |
| 20260905145143 | 29 | 330 | 4.8 | 8.0 | 0.00 | 0.00 | 0.00 | 79 | 1015.0 |
| 20260905144637 | 29 | 330 | 6.4 | 9.7 | 0.00 | 0.00 | 0.00 | 80 | 1015.0 |
| 20260905144136 | 28 | 330 | 6.4 | 9.7 | 0.00 | 0.00 | 0.00 | 81 | 1015.0 |
| 20260905143632 | 28 | 330 | 6.4 | 8.0 | 0.00 | 0.00 | 0.00 | 81 | 1014.7 |
| 20260905143131 | 28 | 330 | 8.0 | 9.7 | 0.00 | 0.00 | 0.00 | 82 | 1015.0 |
| 20260905142630 | 28 | 0 | 6.4 | 9.7 | 0.00 | 0.00 | 0.00 | 84 | 1014.7 |
| 20260905142130 | 27 | 0 | 3.2 | 6.4 | 0.00 | 0.00 | 0.00 | 85 | 1015.0 |
| 20260905141630 | 27 | 0 | 3.2 | 4.8 | 0.00 | 0.00 | 0.00 | 85 | 1015.3 |
| 20260905141127 | 28 | 0 | 4.8 | 8.0 | 0.00 | 0.00 | 0.00 | 84 | 1015.7 |
| 20260905140622 | 28 | 0 | 3.2 | 6.4 | 0.00 | 0.00 | 0.00 | 84 | 1015.3 |
| 20260905140121 | 27 | 1 | 6.4 | 6.4 | 0.00 | 0.00 | 0.00 | 85 | 1015.3 |
| 20260905135616 | 27 | 4 | 1.6 | 3.2 | 0.00 | 0.00 | 0.00 | 85 | 1015.0 |
| 20260905135111 | 27 | 4 | 3.2 | 4.8 | 0.00 | 0.00 | 0.00 | 85 | 1015.0 |
| 20260905134606 | 27 | 294 | 3.2 | 4.8 | 0.00 | 0.00 | 0.00 | 86 | 1015.0 |
| 20260905134104 | 27 | 294 | 0.0 | 3.2 | 0.00 | 0.00 | 0.00 | 86 | 1015.0 |
| 20260905133600 | 27 | 294 | 0.0 | 3.2 | 0.00 | 0.00 | 0.00 | 87 | 1015.0 |
| 20260905133100 | 26 | 294 | 0.0 | 0.0 | 0.00 | 0.00 | 0.00 | 87 | 1015.0 |
| 20260905132600 | 27 | 294 | 0.0 | 0.0 | 0.00 | 0.00 | 0.00 | 87 | 1015.0 |
| 20260905132054 | 26 | 294 | 0.0 | 0.0 | 0.00 | 0.00 | 0.00 | 86 | 1015.0 |
| 20260905131550 | 26 | 294 | 0.0 | 0.0 | 0.00 | 0.00 | 0.00 | 87 | 1015.0 |
| 20260905131045 | 26 | 294 | 0.0 | 0.0 | 0.00 | 0.00 | 0.00 | 90 | 1015.0 |
| 20260905130544 | 26 | 294 | 0.0 | 0.0 | 0.00 | 0.00 | 0.00 | 92 | 1015.0 |
| 20260905130040 | 25 | 294 | 0.0 | 0.0 | 0.00 | 0.00 | 0.00 | 93 | 1015.0 |
| 20260905125539 | 25 | 294 | 0.0 | 0.0 | 0.00 | 0.00 | 0.00 | 94 | 1015.0 |
| 20260905125035 | 25 | 294 | 0.0 | 0.0 | 0.00 | 0.00 | 0.00 | 95 | 1015.0 |
| 20260905124531 | 25 | 294 | 0.0 | 0.0 | 0.00 | 0.00 | 0.00 | 95 | 1015.0 |
| 20260905124027 | 25 | 294 | 0.0 | 0.0 | 0.00 | 0.00 | 0.00 | 96 | 1015.0 |
| 20260905123522 | 24 | 294 | 0.0 | 0.0 | 0.00 | 0.00 | 0.00 | 96 | 1015.0 |
| 20260905123020 | 24 | 294 | 0.0 | 0.0 | 0.00 | 0.00 | 0.00 | 96 | 1015.0 |
| 20260905122519 | 24 | 294 | 0.0 | 0.0 | 0.00 | 0.00 | 0.00 | 97 | 1015.0 |
| 20260905122014 | 24 | 294 | 0.0 | 0.0 | 0.00 | 0.00 | 0.00 | 97 | 1015.0 |
| 20260905121509 | 23 | 294 | 0.0 | 0.0 | 0.00 | 0.00 | 0.00 | 97 | 1015.0 |
| 20260905121008 | 23 | 294 | 0.0 | 0.0 | 0.00 | 0.00 | 0.00 | 97 | 1015.0 |
| 20260905120502 | 23 | 294 | 0.0 | 0.0 | 0.00 | 0.00 | 0.00 | 97 | 1014.7 |
| 20260905115958 | 23 | 294 | 0.0 | 0.0 | 0.00 | 0.00 | 0.00 | 97 | 1015.0 |
| 20260905115457 | 23 | 294 | 0.0 | 0.0 | 0.00 | 0.00 | 0.00 | 97 | 1014.7 |
| 20260905114952 | 23 | 294 | 0.0 | 0.0 | 0.00 | 0.00 | 0.00 | 96 | 1014.7 |
| 20260905114452 | 23 | 294 | 0.0 | 0.0 | 0.00 | 0.00 | 0.00 | 96 | 1014.7 |
| 20260905113950 | 23 | 294 | 0.0 | 0.0 | 0.00 | 0.00 | 0.00 | 96 | 1014.7 |
| 20260905113446 | 23 | 294 | 0.0 | 0.0 | 0.00 | 0.00 | 0.00 | 96 | 1014.7 |
| 20260905112941 | 23 | 294 | 0.0 | 0.0 | 0.00 | 0.00 | 0.00 | 96 | 1014.7 |
| 20260905112436 | 23 | 294 | 0.0 | 0.0 | 0.00 | 0.00 | 0.00 | 96 | 1014.7 |
| 20260905111932 | 23 | 294 | 0.0 | 0.0 | 0.00 | 0.00 | 0.00 | 97 | 1014.7 |
| 20260905111432 | 23 | 294 | 0.0 | 0.0 | 0.00 | 0.00 | 0.00 | 97 | 1014.7 |
| 20260905110927 | 23 | 294 | 0.0 | 0.0 | 0.00 | 0.00 | 0.00 | 97 | 1014.7 |
| 20260905110425 | 23 | 294 | 0.0 | 0.0 | 0.00 | 0.00 | 0.00 | 97 | 1014.7 |